Hourly Weather Celinnoe

Today, 12 June, Saturday

Time Temperature Precipitation Wind Pressure Humidity
00:00 +14°C° 0 mm 3 mps 747 mmHg 56%
01:00 +13°C° 0 mm 3 mps 747 mmHg 57%
02:00 +13°C° 0 mm 3 mps 747 mmHg 58%
03:00 +12°C° 0 mm 3 mps 747 mmHg 59%
04:00 +12°C° 0 mm 3 mps 747 mmHg 60%
05:00 +14°C° 0 mm 4 mps 748 mmHg 54%
06:00 +17°C° 0 mm 4 mps 748 mmHg 48%
07:00 +19°C° 0 mm 5 mps 748 mmHg 43%
08:00 +20°C° 0 mm 5 mps 748 mmHg 38%
09:00 +22°C° 0 mm 5 mps 748 mmHg 34%
10:00 +23°C° 0 mm 5 mps 748 mmHg 29%
11:00 +25°C° 0 mm 5 mps 748 mmHg 28%
12:00 +25°C° 0 mm 5 mps 748 mmHg 26%
13:00 +26°C° 0 mm 5 mps 748 mmHg 25%
14:00 +26°C° 0 mm 5 mps 748 mmHg 25%
15:00 +26°C° 0 mm 5 mps 748 mmHg 25%
16:00 +26°C° 0 mm 5 mps 747 mmHg 25%
17:00 +25°C° 0 mm 4 mps 748 mmHg 30%
18:00 +22°C° 0 mm 4 mps 748 mmHg 35%
19:00 +21°C° 0 mm 3 mps 748 mmHg 39%
20:00 +20°C° 0 mm 3 mps 748 mmHg 42%
21:00 +18°C° 0 mm 4 mps 748 mmHg 45%
22:00 +17°C° 0 mm 4 mps 748 mmHg 48%
23:00 +15°C° 0 mm 4 mps 748 mmHg 49%

Tomorrow, 13 June, Sunday

Time Temperature Precipitation Wind Pressure Humidity
00:00 +15°C° 0 mm 4 mps 748 mmHg 51%
01:00 +14°C° 0 mm 3 mps 748 mmHg 53%
02:00 +14°C° 0 mm 3 mps 749 mmHg 55%
03:00 +13°C° 0 mm 3 mps 749 mmHg 58%
04:00 +13°C° 0 mm 3 mps 749 mmHg 60%
05:00 +16°C° 0 mm 3 mps 749 mmHg 55%
06:00 +18°C° 0 mm 3 mps 749 mmHg 49%
07:00 +20°C° 0 mm 3 mps 750 mmHg 44%
08:00 +22°C° 0 mm 3 mps 750 mmHg 39%
09:00 +24°C° 0 mm 3 mps 750 mmHg 35%
10:00 +26°C° 0 mm 3 mps 750 mmHg 30%
11:00 +26°C° 0 mm 3 mps 749 mmHg 28%
12:00 +27°C° 0 mm 3 mps 749 mmHg 26%
13:00 +28°C° 0 mm 3 mps 749 mmHg 25%
14:00 +28°C° 0 mm 3 mps 749 mmHg 24%
15:00 +28°C° 0 mm 3 mps 749 mmHg 24%
16:00 +29°C° 0 mm 3 mps 749 mmHg 23%
17:00 +27°C° 0 mm 3 mps 748 mmHg 28%
18:00 +26°C° 0 mm 3 mps 748 mmHg 32%
19:00 +25°C° 0 mm 3 mps 748 mmHg 37%
20:00 +24°C° 0 mm 3 mps 748 mmHg 38%
21:00 +21°C° 0 mm 3 mps 749 mmHg 40%
22:00 +20°C° 0 mm 3 mps 749 mmHg 41%
23:00 +19°C° 0 mm 3 mps 749 mmHg 42%

Day after tomorrow, 14 June, Monday

Time Temperature Precipitation Wind Pressure Humidity
00:00 +18°C° 0 mm 3 mps 749 mmHg 42%
01:00 +18°C° 0 mm 3 mps 749 mmHg 43%
02:00 +17°C° 0 mm 3 mps 749 mmHg 44%
03:00 +17°C° 0 mm 3 mps 749 mmHg 45%
04:00 +17°C° 0 mm 3 mps 749 mmHg 46%
05:00 +19°C° 0 mm 3 mps 750 mmHg 44%
06:00 +20°C° 0 mm 3 mps 750 mmHg 41%
07:00 +22°C° 0 mm 3 mps 750 mmHg 39%
08:00 +25°C° 0 mm 4 mps 750 mmHg 36%
09:00 +27°C° 0 mm 4 mps 750 mmHg 32%
10:00 +28°C° 0 mm 4 mps 750 mmHg 29%
11:00 +29°C° 0 mm 4 mps 750 mmHg 28%
12:00 +29°C° 0 mm 4 mps 750 mmHg 28%
13:00 +30°C° 0 mm 4 mps 749 mmHg 27%
14:00 +30°C° 0 mm 3 mps 749 mmHg 27%
15:00 +30°C° 0 mm 3 mps 749 mmHg 26%
16:00 +30°C° 0 mm 3 mps 749 mmHg 26%
17:00 +29°C° 0 mm 2 mps 748 mmHg 30%
18:00 +28°C° 0 mm 1 mps 748 mmHg 33%
19:00 +27°C° 0 mm 1 mps 748 mmHg 36%
20:00 +26°C° 0 mm 1 mps 748 mmHg 38%
21:00 +24°C° 0 mm 1 mps 748 mmHg 40%
22:00 +23°C° 0 mm 2 mps 748 mmHg 41%
23:00 +21°C° 0 mm 2 mps 747 mmHg 43%

15 June, Tuesday

Time Temperature Precipitation Wind Pressure Humidity
00:00 +21°C° 0 mm 2 mps 747 mmHg 45%
01:00 +20°C° 0 mm 2 mps 747 mmHg 46%
02:00 +20°C° 0 mm 2 mps 747 mmHg 47%
03:00 +19°C° 0 mm 2 mps 747 mmHg 49%
04:00 +19°C° 0 mm 2 mps 747 mmHg 50%
05:00 +21°C° 0 mm 2 mps 747 mmHg 47%
06:00 +24°C° 0 mm 2 mps 747 mmHg 43%
07:00 +26°C° 0 mm 2 mps 748 mmHg 40%
08:00 +27°C° 0 mm 2 mps 747 mmHg 36%
09:00 +29°C° 0 mm 2 mps 747 mmHg 32%
10:00 +31°C° 0 mm 3 mps 747 mmHg 28%
11:00 +31°C° 0 mm 3 mps 747 mmHg 26%
12:00 +33°C° 0 mm 3 mps 746 mmHg 25%
13:00 +33°C° 0 mm 4 mps 746 mmHg 24%
14:00 +33°C° 0 mm 3 mps 746 mmHg 23%
15:00 +33°C° 0 mm 3 mps 745 mmHg 23%
16:00 +34°C° 0 mm 3 mps 745 mmHg 23%
17:00 +31°C° 0 mm 3 mps 745 mmHg 28%
18:00 +30°C° 0 mm 3 mps 744 mmHg 34%
19:00 +28°C° 0 mm 3 mps 744 mmHg 39%
20:00 +27°C° 0 mm 3 mps 744 mmHg 38%
21:00 +26°C° 0 mm 3 mps 744 mmHg 37%
22:00 +25°C° 0 mm 3 mps 744 mmHg 37%
23:00 +25°C° 0 mm 3 mps 744 mmHg 37%

16 June, Wednesday

Time Temperature Precipitation Wind Pressure Humidity
00:00 +25°C° 0 mm 3 mps 744 mmHg 38%
01:00 +25°C° 0 mm 3 mps 744 mmHg 38%
02:00 +24°C° 0 mm 2 mps 744 mmHg 41%
03:00 +23°C° 0 mm 2 mps 744 mmHg 44%
04:00 +21°C° 0 mm 2 mps 744 mmHg 46%
05:00 +24°C° 0 mm 3 mps 744 mmHg 43%
06:00 +26°C° 0 mm 3 mps 744 mmHg 40%
07:00 +27°C° 0 mm 4 mps 744 mmHg 37%
08:00 +29°C° 0 mm 4 mps 744 mmHg 34%
09:00 +32°C° 0 mm 5 mps 744 mmHg 31%
10:00 +33°C° 0 mm 5 mps 744 mmHg 28%
11:00 +33°C° 0 mm 5 mps 743 mmHg 28%
12:00 +33°C° 0 mm 4 mps 743 mmHg 27%
13:00 +33°C° 0 mm 3 mps 743 mmHg 27%
14:00 +33°C° 0 mm 3 mps 743 mmHg 27%
15:00 +33°C° 0 mm 4 mps 742 mmHg 28%
16:00 +33°C° 0 mm 4 mps 742 mmHg 29%
17:00 +29°C° 0.1 mm 5 mps 742 mmHg 38%
18:00 +27°C° 0.1 mm 6 mps 743 mmHg 48%
19:00 +23°C° 0.1 mm 7 mps 743 mmHg 58%
20:00 +23°C° 0 mm 6 mps 743 mmHg 53%
21:00 +25°C° 0 mm 4 mps 742 mmHg 48%
22:00 +25°C° 0 mm 2 mps 742 mmHg 43%
23:00 +24°C° 0 mm 2 mps 742 mmHg 46%

17 June, Thursday

Time Temperature Precipitation Wind Pressure Humidity
00:00 +23°C° 0 mm 1 mps 741 mmHg 49%
01:00 +22°C° 0 mm 1 mps 741 mmHg 52%
02:00 +21°C° 0 mm 2 mps 741 mmHg 54%
03:00 +21°C° 0 mm 2 mps 741 mmHg 56%
04:00 +20°C° 0 mm 2 mps 741 mmHg 58%
05:00 +22°C° 0 mm 3 mps 741 mmHg 54%
06:00 +25°C° 0 mm 4 mps 740 mmHg 50%
07:00 +27°C° 0 mm 4 mps 740 mmHg 46%
08:00 +28°C° 0 mm 5 mps 740 mmHg 40%
09:00 +30°C° 0 mm 5 mps 739 mmHg 35%
10:00 +33°C° 0 mm 6 mps 739 mmHg 29%
11:00 +34°C° 0 mm 6 mps 738 mmHg 27%
12:00 +35°C° 0 mm 6 mps 738 mmHg 25%
13:00 +35°C° 0 mm 6 mps 737 mmHg 23%
14:00 +34°C° 0 mm 6 mps 737 mmHg 27%
15:00 +32°C° 0 mm 7 mps 736 mmHg 31%
16:00 +31°C° 0 mm 8 mps 736 mmHg 36%
17:00 +27°C° 0.4 mm 7 mps 736 mmHg 49%
18:00 +23°C° 0.4 mm 6 mps 736 mmHg 63%
19:00 +21°C° 0.4 mm 5 mps 737 mmHg 77%
20:00 +20°C° 1.3 mm 4 mps 737 mmHg 82%
21:00 +19°C° 1.3 mm 4 mps 737 mmHg 87%
22:00 +19°C° 1.3 mm 3 mps 737 mmHg 92%
23:00 +18°C° 0.3 mm 4 mps 738 mmHg 88%
Show more

We Need Your Consent

Meteoprog and our Service Providers may store and access personal data such as cookies, device identifiers or other similar technologies on your device and process such data to personalise content and ads, as well as provide social media features and to analyse the traffic.

  • Store and/or access information on your device

    Cookies, device identifiers or other information can be stored or accessed on your device for the purposes indicated above.

  • Personalised ads and content, ad and content measurement, audience insights, and products development

    Ads and content can be personalised based on a profile. More data can be added to better personalise ads and content. Ad and content performance can be measured. Insights about the audience who saw the ads and content can be derived. Such data can be used to develop or improve user’s experience, systems and software.

By clicking ‘I Agree’ you will allow the use of indicated cookies, device identifiers, web beacons or other similar technologies. Your settings can be changed in the browser on your device.

For certain purposes, legitimate interests may be relied on, rather than consent. You can read more about this in our Privacy and Cookie Policy.